Regional Weather Roundup
Issued by NWS Wakefield, VA

Home | Current Version | Previous Version | Graphics & Text | Print | Product List | Glossary On
Versions: 1 2 3 4 5 6 7 8 9 10 11 12 13 14 15 16 17 18 19 20 21 22 23 24 25 26 27
000
ASUS41 KAKQ 281215
RWRAKQ

REGIONAL WEATHER ROUNDUP
NATIONAL WEATHER SERVICE WAKEFIELD VA
800 AM EDT SAT MAY 28 2016

Note: "fair" indicates few or no clouds below 12,000 feet with no
significant weather and/or obstructions to visibility. * = Denotes
station may not report precipitation (e.g., rain,snow,etc.),
thunder or fog.

VAZ042-051-052>054-056-281300-
NORTHERN VIRGINIA

CITY           SKY/WX    TMP DP  RH WIND       PRES   REMARKS
WASH NATIONAL  FAIR      72  63  73 S8        30.15R
DULLES         FAIR      72  63  73 S9        30.14R
FORT BELVOIR   FAIR      72  63  72 SE5       30.14S
QUANTICO       FAIR      72  63  73 S7        30.15R
FREDERICKSBRG* FAIR      71  62  73 CALM      30.14S
STAFFORD*      FAIR      71  61  70 CALM      30.18S
WARRENTON      FAIR      73  60  62 SW3       30.14S
CULPEPER*      FAIR      73  65  77 S3        30.15S
MANASSAS*      SUNNY     72  64  78 CALM      30.14R
LEESBURG*      FAIR      73  70  88 S5        30.15S
WINCHESTER     FAIR      72  64  78 SW3       30.14F
FRONT ROYAL*   FAIR      70  66  88 CALM      30.13S
LURAY*         FAIR      68  68 100 CALM      30.16S
$$

VAZ048-049-060>072-079>083-281300-
CENTRAL AND SOUTH CENTRAL VIRGINIA

CITY           SKY/WX    TMP DP  RH WIND       PRES   REMARKS
RICHMOND       FAIR      69  62  78 SW7       30.17S
CHESTERFIELD*  FAIR      70  52  52 CALM      30.19R
PETERSBURG*    FAIR      69  64  83 CALM      30.19R
HANOVER        FAIR      71  59  65 S9        30.18R
TAPPAHANNOCK*  FAIR      71  61  71 S3        30.18R
QUINTON*       FAIR      68  62  80 S3        30.18R
CHARLOTTSVILLE FAIR      71  64  78 S6        30.15R
GORDONSVILLE*  FAIR      70  64  81 SW8       30.15R
ORANGE*        FAIR      72  64  78 SW7       30.16S
LOUISA*        FAIR      73  64  73 CALM      30.15R
BUMPASS*       FAIR      69  62  78 S5        30.16R
FARMVILLE*     FAIR      70  63  80 S6        30.16R
CREWE*         FAIR      66  65  95 CALM      30.18R
FORT PICKETT*  NOT AVBL
CHASE CITY*    FAIR      68  62  82 CALM      30.19R
CLARKSVILLE*   FAIR      64  63  94 SW5       30.19R
SOUTH HILL*    FAIR      66  62  86 SW5       30.24R
LAWRENCEVILLE* FAIR      67  62  85 CALM      30.19R
EMPORIA*         N/A     66  63  88 CALM      30.20S
$$

VAZ088>098-281300-
SOUTHEAST VIRGINIA

CITY           SKY/WX    TMP DP  RH WIND       PRES   REMARKS
NORFOLK        FAIR      71  64  78 S8        30.19R
VIRGINIA BEACH FAIR      74  64  71 S5        30.19R
NORFOLK NAVAL  FAIR      73  64  73 S5        30.20R
WEST POINT*    FAIR      70  61  74 S5        30.20R
SALUDA*        FAIR      71  64  80 SW3       30.18R
NEWPORT NEWS   FAIR      71  64  78 SW7       30.19R
LANGLEY AFB    FAIR      71  64  77 S8        30.19R
FORT EUSTIS    FAIR      71  61  72 VRB3      30.17R
WILLIAMSBURG*  FAIR      72  63  73 SW3       30.19S
HR EXEC AP*      N/A     66  64  94 CALM      30.21S
FRANKLIN*      FAIR      67  63  84 CALM      30.20R
US460-WAKEFLD  FAIR      68  62  81 S3        30.19R
$$

VAZ020-022-025-037-045-281300-
WEST CENTRAL AND SOUTHWEST VIRGINIA

CITY           SKY/WX    TMP DP  RH WIND       PRES   REMARKS
STAUNTON*      FAIR      65  64  97 CALM      30.20R
WAYNESBORO*    FAIR      67  64  92 CALM      30.19R
HOT SPRINGS VA FAIR      65  61  85 W8        30.28R
LYNCHBURG      FAIR      67  61  81 S5        30.20R
DANVILLE       FAIR      66  60  81 SW3       30.19R
SOUTH BOSTON*  FAIR      66  64  93 CALM      30.18S
MARTINSVILLE   FAIR      62  60  96 CALM      30.20F FOG
ROANOKE        FAIR      69  64  84 CALM      30.20R
BLACKSBURG     FAIR      66  63  90 CALM      30.25S
DUBLIN*        FOG       63  63 100 CALM      30.24S VSB<1/4
MARION*        FOG       61  59  96 CALM      30.25S VSB<1/4
HILLSVILLE*    PTSUNNY   64  61  92 CALM      30.23S
RICHLANDS*     FAIR      68  66  93 CALM      30.22S
WISE*          FAIR      66  61  82 S5        30.22S
ABINGDON*      FAIR      66  64  93 E6        30.20R
$$

MDZ021>025-VAZ099-100-281300-
SOUTHERN MARYLAND AND THE DELMARVA PENINSULA

CITY           SKY/WX    TMP DP  RH WIND       PRES   REMARKS
PATUXENT RIVER MOSUNNY   71  60  68 VRB5      30.17R
BAY BRIDGE APT SUNNY     73  61  64 S7        30.15R
LEONARDTOWN    SUNNY     70  61  73 SW7       30.18R
DOVER          SUNNY     72  66  81 S9        30.14S
GEORGETOWN     SUNNY     71  64  78 SW8       30.17S
EASTON         SUNNY     73  66  78 SW8       30.19R
CAMBRIDGE      SUNNY     70  63  78 S3        30.16R
SALISBURY      SUNNY     71  64  78 S8        30.18R
OCEAN CITY     SUNNY     70  64  81 S6        30.18R
WALLOPS ISLAND FAIR      71  65  81 S7        30.19R
ACCOMACK*      FAIR      72  61  68 SW6       30.19R
$$

NCZ012>017-030>032-281300-
NORTH CENTRAL AND EASTERN NORTH CAROLINA

CITY           SKY/WX    TMP DP  RH WIND       PRES   REMARKS
ROANOKE RAPIDS FAIR      63  61  94 CALM      30.19S
RALEIGH        MOSUNNY   69  62  78 CALM      30.19R
ELIZABETH CITY SUNNY     72  68  87 NE3       30.19R
AHOSKIE*       SUNNY     64  62  92 CALM      30.19S
EDENTON*       SUNNY    N/A N/A N/A CALM      30.19S
CURRITUCK*     SUNNY     70  67  88 CALM      30.20R
KILL DEVIL HLS SUNNY     69  67  91 CALM      30.18R
MANTEO         NOT AVBL
CAPE HATTERAS  SUNNY     77  69  76 SE6       30.17R
TARBORO*       FAIR      62  62  99 CALM      30.19S
GOLDSBORO      SUNNY     68  68 100 VRB1      30.16R
WASHINGTON     SUNNY     66  64  91 CALM      30.18R
GREENVILLE     SUNNY     64  63  94 CALM      30.18F
NEW BERN       SUNNY     72  68  87 NE6       30.18R
WILMINGTON     MOSUNNY   71  67  87 NE9       30.13S
$$

VAZ048-281300-
ELSEWHERE

CITY           SKY/WX    TMP DP  RH WIND       PRES   REMARKS
HARRISBURG PA  PTSUNNY   73  66  78 E3        30.13R
BALTIMORE      MOSUNNY   73  62  68 SW5       30.14R
ANNAPOLIS      SUNNY     72  62  71 S5        30.14R
ANDREWS AFB    FAIR      73  61  67 SW9       30.14R
PHILADELPHIA   PTSUNNY   73  61  65 SW9       30.15S
HENDERSON NC   SUNNY     65  59  82 SW3       30.19S
GREENSBORO     MOSUNNY   68  60  75 SW3       30.18S
ROCKY MOUNT    SUNNY     67  62  84 CALM      30.18S
$$

VAZ100-281300-
MARINE

STATION/POSITION TIME  TEMP    WIND        PRES    WAVE   SWELL
                       AIR SEA DIR/SP/G            HT/PER HT/PER
                 (UTC) (F)     (DEG/KT/KT) (MB)    (FT/S) (FT/S)
BRANDYWINE LGT   1100   67     210/  9/ 10 1021.4R
CAPE MAY NJ      1100   67 67  180/  4/  6 1021.2R
LEWES DE         1100   70 60  220/  6/  9 1021.3R
15NM E FENWICK I 1150   63 60              1022.2R   2/ 7
OCEAN-CITY-INLET 1100   60 58  200/  5/  7 1022.1R
WACHAPREAGUE VA  1100   71 74  200/  3/  3 1021.4R
THOMAS POINT MD  1200   69 65  180/ 11/ 11 1022.1R
GOOSES REEF MD   1100   70 66  200/ 10/ 12 1021.4S   1/ 4
COVE POINT MD    1100   68     180/  4/  5 1021.5R
SOLOMONS ISLAND  1100   73 67   CALM  /  2   N/A
BISHOPS HEAD MD  1100   71 71  200/ 12/ 13 1021.2R
PINEY POINT MD   1100          200/  6/  7   N/A
POTOMAC MD       1100   69 67  220/  4/  6 1020.3R   1/ 3
CAMBRIDGE MD     1100   70 66  180/  4/  6 1020.2R
LEWISETTA VA     1100   70 63  230/  5/  6 1020.9R
RAPPAHANNOCK LGT 1100          180/  9/ 10 1022.2R
STINGRAY PT      1100   69 69  220/  6/  6 1022.0R   0
YORK RVR RNG VA  1100   70     220/  5/  6 1021.1R
YORKTOWN VA      1100   69 69  280/  2/  2 1021.4R
JAMESTOWN VA     1100   68 73  190/  4/  6   N/A     0
DOMINION TERM VA 1100   68     180/  5/  5 1021.9R
KIPTOPEKE VA     1100      69  170/  5/  5   N/A
CHES BAY BRIDGE  1100   67 68  150/  4/  5 1021.7R
CAPE HENRY VA    1100   68     180/  6/  9   N/A
CHESAPEAKE LGHT  1100   69     180/  7/  7 1022.6R
WILLOUBY STN VA  1100   69     180/  6/  7 1022.7R
CAPE HENRY BUOY  1112      65                N/A     2/ 7
1ST LANDING BUOY 1100   68 68  150/  4/  4 1021.9R   1
CAPE CHARLES BUO 1126      65                N/A     2/ 8   2/ 8
OFFSHORE WE BUOY 1121      67                N/A     3/ 7   2/ 7
64NM E OF VA BCH 1150   67 61   90/  4/  6 1022.5R   3/ 8   3/ 8
DUCK PIER NC     1100   63 59   60/  2/  4 1021.3R
44100 DUCK FRF   1124      66                N/A     3/ 8
44056 DUCK FRF   1111      62                N/A     2/ 8
OREGON INLET NC  1100   69 72   50/  5/  6 1021.6R
HATTERAS NC      1100   75 74  110/  5/  7 1020.9R
DIAMOND SHLS NC  1150   77 78  110/ 12/ 16 1021.2R   4/ 9   3/ 9
CAPE LOOKOUC1F1C2F2C3F3C4F4C5F5C6F6C7F7C8M1C9!



USA.gov is the U.S. government's official web portal to all federal, state and local government web resources and services.